Weather in Bzhid

Russia / Krasnodar Krai     44°21′15″N   38°39′56″E
temp.,
°C
wind,
m/s
gust,
m/s
humid.,
%
clouds,
%
prec.,
mm/h
press.,
hPa
HPBL,
m
17 june, thu
thu1700:00+20se10139394 3.6 1005658
03:00+20se14179029 4.6 1006928
06:00+19ssw14159191 0.9 1009977
09:00+19ssw12138284 3.4 10111192
12:00+19s101184100 3.4 1014915
15:00+20s9108311 5.3 1015987
18:00+20ssw67791 0.3 1016831
21:00+20s23800 0.3 1017428
18 june, fri
fri1800:00+19ese22802 0.0 1017153
03:00+18ne32845 0.0 101694
06:00+18nne44785 0.0 1016114
09:00+22n45660 0.0 1015223
12:00+25nw34590 0.0 1015335
15:00+26nne565538 0.0 1014339
18:00+25nne79600 0.0 1013270
21:00+23nne610700 0.0 1013215
19 june, sat
sat1900:00+21ene34790 0.0 101380
03:00+19ne33862 0.0 101390
06:00+19ne34840 0.0 1012125
09:00+22sse12746 0.0 1012161
12:00+23ssw447531 0.0 1011333
15:00+22sw568314 0.0 1009309
18:00+22sw11823 0.0 100871
21:00+22s33830 0.0 100841
20 june, sun
sun2000:00+21se458797 0.0 1010120
03:00+21e338795 0.0 101082
06:00+21e12840 0.0 101045
09:00+21s22810 0.0 1010197
12:00+21sse349031 0.0 1011273
15:00+22sse23845 0.0 1011226
18:00+22wsw22822 0.0 1010128
21:00+21nw12850 0.0 101016
21 june, mon
mon2100:00+21se11850 0.0 101011
03:00+21ese22870 0.0 101037
06:00+21ene11850 0.0 100956
09:00+22ssw11800 0.0 1010146
12:00+21ssw228410 0.0 1010196
15:00+22ssw33800 0.0 1010258
18:00+22wnw12800 0.0 1010190
21:00+22wsw22860 0.0 101027